Flag for Australia Weather past 2 weeks in Melbourne, Victoria, Australia

Now
57 °F

Partly cloudy.


Feels Like: 54 °F
Forecast: 60 / 65 °F
Wind: 15 mph from Southwest

Location: Melbourne Airport

Current Time: Jan 31, 2015 at 11:44:25 PM

Latest Report: Jan 31, 2015 at 11:00 PM


Visibility: N/A

Pressure: 29.95 "Hg

Humidity: 88%

Dew point: 54 °F

Location of MelbourneLocation

Historic Weather in Melbourne — Graph

°F

Melbourne temperature yesterday

Maximum temperature yesterday: 70 °F (at 2:00 PM)
Minimum temperature yesterday: 54 °F (at 2:30 AM)
Average temperature yesterday: 61 °F

Past Weeks' High & Low Weather Summary

 TemperatureHumidityPressure
High97 °F (Jan 22, 5:30 PM)94% (Jan 20, 5:00 AM)30.12 "Hg (Jan 20, 5:00 AM)
Low46 °F (Jan 26, 6:30 AM)19% (Jan 22, 5:30 PM)29.56 "Hg (Jan 24, 3:30 PM)
Average65 °F58%29.88 "Hg
* Reported Jan 16 10:00 PM — Jan 31 10:30 PM, Melbourne, Weather by CustomWeather, © 2014

Note: Actual official high and low records may vary slightly from our data, if they occured in-between our weather recording intervals... More about our weather records

Advertising

Melbourne weather history for previous 24 hours

 ConditionsComfort  
Time TempWeatherWind HumidityBarometerVisibility
10:30 PM
Jan 31
57 °FPassing clouds.17 mph88%29.95 "HgN/A
10:00 PM59 °FPassing clouds.17 mph82%29.92 "HgN/A
9:30 PM59 °FPassing clouds.15 mph82%29.92 "HgN/A
9:00 PM61 °FPartly cloudy.17 mph72%29.92 "HgN/A
8:30 PM61 °FPartly sunny.17 mph77%29.92 "HgN/A
8:00 PM61 °FBroken clouds.17 mph72%29.92 "HgN/A
7:30 PM63 °FScattered clouds.20 mph64%29.89 "HgN/A
7:00 PM64 °FScattered clouds.21 mph60%29.89 "HgN/A
6:30 PM64 °FPartly sunny.20 mph60%29.89 "HgN/A
6:00 PM68 °FBroken clouds.21 mph49%29.89 "HgN/A
5:30 PM66 °FBroken clouds.20 mph49%29.86 "HgN/A
5:00 PM68 °FScattered clouds.17 mph46%29.86 "HgN/A
4:00 PM72 °FScattered clouds.20 mph38%29.86 "HgN/A
3:30 PM70 °FScattered clouds.15 mph43%29.86 "HgN/A
3:00 PM72 °FScattered clouds.15 mph41%29.86 "HgN/A
2:00 PM70 °FBroken clouds.17 mph46%29.89 "HgN/A
1:30 PM66 °FPartly sunny.20 mph52%29.89 "HgN/A
1:00 PM66 °FPartly sunny.17 mph52%29.89 "HgN/A
12:30 PM68 °FBroken clouds.17 mph49%29.89 "HgN/A
12:00 PM66 °FBroken clouds.17 mph52%29.89 "HgN/A
11:30 AM64 °FPartly sunny.18 mph56%29.89 "HgN/A
11:00 AM68 °FPartly sunny.18 mph49%29.89 "HgN/A
10:00 AM63 °FPartly sunny.16 mph68%29.89 "HgN/A
9:30 AM63 °FPartly sunny.13 mph64%29.89 "HgN/A
9:00 AM63 °FPartly sunny.13 mph64%29.89 "HgN/A
8:00 AM59 °FScattered clouds.13 mph77%29.89 "HgN/A
7:00 AM57 °FBroken clouds.12 mph77%29.89 "HgN/A
6:30 AM55 °FPartly cloudy.9 mph82%29.89 "HgN/A
6:00 AM54 °FPassing clouds.8 mph88%29.86 "HgN/A
5:30 AM55 °FPassing clouds.10 mph82%29.86 "HgN/A
5:00 AM55 °FPassing clouds.9 mph77%29.86 "HgN/A
4:30 AM55 °FPassing clouds.10 mph77%29.86 "HgN/A
4:00 AM57 °FPartly cloudy.12 mph72%29.86 "HgN/A
3:30 AM57 °FPassing clouds.9 mph72%29.86 "HgN/A
3:00 AM57 °FPassing clouds.10 mph72%29.89 "HgN/A
2:30 AM55 °FPassing clouds.10 mph77%29.89 "HgN/A
2:00 AM55 °FPassing clouds.10 mph77%29.89 "HgN/A
1:30 AM55 °FPassing clouds.10 mph77%29.89 "HgN/A
1:00 AM55 °FPassing clouds.9 mph77%29.92 "HgN/A
12:30 AM55 °FPassing clouds.8 mph77%29.92 "HgN/A
12:00 AM57 °FPassing clouds.7 mph72%29.92 "HgN/A
11:30 PM
Jan 30
59 °FPassing clouds.10 mph68%29.92 "HgN/A
11:00 PM59 °FPassing clouds.8 mph68%29.92 "HgN/A
Weather by CustomWeather, © 2014

See weather overviewHow to use our weather pages